| time (UTC) | temp F | wind direction | speed MPH | gust MPH | rain 1hr in | rain 24hr in | rain mn in | humidity % | barometer mb |
| 20260901222839 | 96 | 336 | 1.0 | 1.0 | 0.00 | 0.00 | 0.00 | 37 | |
| 20260901222335 | 96 | 328 | 2.0 | 2.0 | 0.00 | 0.00 | 0.00 | 36 | |
| 20260901221830 | 96 | 336 | 0.0 | 1.0 | 0.00 | 0.00 | 0.00 | 37 | |
| 20260901221326 | 96 | 316 | 3.0 | 3.0 | 0.00 | 0.00 | 0.00 | 35 | |
| 20260901220825 | 96 | 332 | 3.0 | 5.0 | 0.00 | 0.00 | 0.00 | 35 | |
| 20260901220325 | 96 | 335 | 1.0 | 2.0 | 0.00 | 0.00 | 0.00 | 36 | |
| 20260901215824 | 96 | 324 | 0.0 | 1.0 | 0.00 | 0.00 | 0.00 | 37 | |
| 20260901215323 | 96 | 322 | 1.0 | 1.0 | 0.00 | 0.00 | 0.00 | 36 | |
| 20260901214821 | 96 | 321 | 1.0 | 2.0 | 0.00 | 0.00 | 0.00 | 36 | |
| 20260901214321 | 96 | 318 | 1.0 | 5.0 | 0.00 | 0.00 | 0.00 | 36 | |
| 20260901213816 | 96 | 14 | 1.0 | 2.0 | 0.00 | 0.00 | 0.00 | 36 | |
| 20260901213316 | 96 | 331 | 2.0 | 2.0 | 0.00 | 0.00 | 0.00 | 36 | |
| 20260901212810 | 97 | 331 | 1.0 | 6.0 | 0.00 | 0.00 | 0.00 | 36 | |
| 20260901212306 | 97 | 331 | 2.0 | 3.0 | 0.00 | 0.00 | 0.00 | 36 | |
| 20260901211801 | 97 | 351 | 1.0 | 6.0 | 0.00 | 0.00 | 0.00 | 36 | |
| 20260901211257 | 97 | 356 | 3.0 | 7.0 | 0.00 | 0.00 | 0.00 | 35 | |
| 20260901210753 | 97 | 337 | 3.0 | 5.0 | 0.00 | 0.00 | 0.00 | 35 | |
| 20260901210248 | 96 | 359 | 3.0 | 5.0 | 0.00 | 0.00 | 0.00 | 35 | |
| 20260901205744 | 97 | 329 | 2.0 | 2.0 | 0.00 | 0.00 | 0.00 | 34 | |
| 20260901205244 | 97 | 342 | 1.0 | 3.0 | 0.00 | 0.00 | 0.00 | 36 | |
| 20260901204740 | 97 | 19 | 1.0 | 3.0 | 0.00 | 0.00 | 0.00 | 36 | |
| 20260901204236 | 97 | 326 | 0.0 | 3.0 | 0.00 | 0.00 | 0.00 | 34 | |
| 20260901203731 | 97 | 322 | 2.0 | 3.0 | 0.00 | 0.00 | 0.00 | 34 | |
| 20260901203230 | 97 | 324 | 0.0 | 1.0 | 0.00 | 0.00 | 0.00 | 34 | |
| 20260901202730 | 97 | 213 | 1.0 | 5.0 | 0.00 | 0.00 | 0.00 | 34 | |
| 20260901202225 | 97 | 300 | 4.0 | 5.0 | 0.00 | 0.00 | 0.00 | 34 | |
| 20260901201721 | 97 | 64 | 3.0 | 5.0 | 0.00 | 0.00 | 0.00 | 34 | |
| 20260901201215 | 97 | 325 | 1.0 | 2.0 | 0.00 | 0.00 | 0.00 | 35 | |
| 20260901200715 | 97 | 322 | 1.0 | 6.0 | 0.00 | 0.00 | 0.00 | 34 | |
| 20260901200210 | 97 | 4 | 2.0 | 6.0 | 0.00 | 0.00 | 0.00 | 34 | |
| 20260901195708 | 97 | 300 | 1.0 | 5.0 | 0.00 | 0.00 | 0.00 | 35 | |
| 20260901195202 | 97 | 323 | 1.0 | 3.0 | 0.00 | 0.00 | 0.00 | 37 | |
| 20260901194658 | 96 | 3 | 5.0 | 8.0 | 0.00 | 0.00 | 0.00 | 36 | |
| 20260901194152 | 97 | 359 | 1.0 | 2.0 | 0.00 | 0.00 | 0.00 | 38 | |
| 20260901193648 | 97 | 322 | 0.0 | 3.0 | 0.00 | 0.00 | 0.00 | 38 | |
| 20260901193142 | 97 | 324 | 1.0 | 2.0 | 0.00 | 0.00 | 0.00 | 39 | |
| 20260901192637 | 96 | 321 | 1.0 | 2.0 | 0.00 | 0.00 | 0.00 | 40 | |
| 20260901192132 | 96 | 36 | 2.0 | 3.0 | 0.00 | 0.00 | 0.00 | 38 | |
| 20260901191628 | 96 | 314 | 2.0 | 3.0 | 0.00 | 0.00 | 0.00 | 38 | |
| 20260901191124 | 96 | 350 | 3.0 | 6.0 | 0.00 | 0.00 | 0.00 | 37 | |
| 20260901190620 | 96 | 320 | 0.0 | 1.0 | 0.00 | 0.00 | 0.00 | 38 | |
| 20260901190119 | 96 | 322 | 0.0 | 2.0 | 0.00 | 0.00 | 0.00 | 39 | |
| 20260901185617 | 96 | 137 | 2.0 | 2.0 | 0.00 | 0.00 | 0.00 | 39 | |
| 20260901185116 | 95 | 311 | 1.0 | 2.0 | 0.00 | 0.00 | 0.00 | 40 | |
| 20260901184612 | 95 | 138 | 3.0 | 5.0 | 0.00 | 0.00 | 0.00 | 39 | |
| 20260901184107 | 95 | 298 | 1.0 | 3.0 | 0.00 | 0.00 | 0.00 | 40 | |
| 20260901183602 | 95 | 306 | 1.0 | 3.0 | 0.00 | 0.00 | 0.00 | 40 | |
| 20260901183057 | 95 | 336 | 1.0 | 5.0 | 0.00 | 0.00 | 0.00 | 39 | |
| 20260901182553 | 95 | 315 | 1.0 | 3.0 | 0.00 | 0.00 | 0.00 | 38 | |
| 20260901182048 | 95 | 0 | 2.0 | 5.0 | 0.00 | 0.00 | 0.00 | 38 | |
| 20260901181547 | 95 | 318 | 1.0 | 2.0 | 0.00 | 0.00 | 0.00 | 43 | |
| 20260901181047 | 94 | 320 | 1.0 | 2.0 | 0.00 | 0.00 | 0.00 | 44 | |
| 20260901180545 | 94 | 326 | 1.0 | 6.0 | 0.00 | 0.00 | 0.00 | 42 | |
| 20260901180041 | 94 | 295 | 0.0 | 2.0 | 0.00 | 0.00 | 0.00 | 44 | |
| 20260901175540 | 93 | 318 | 1.0 | 3.0 | 0.00 | 0.00 | 0.00 | 45 | |
| 20260901175034 | 93 | 311 | 1.0 | 2.0 | 0.00 | 0.00 | 0.00 | 44 | |
| 20260901174530 | 93 | 330 | 1.0 | 2.0 | 0.00 | 0.00 | 0.00 | 45 | |
| 20260901174026 | 93 | 98 | 1.0 | 2.0 | 0.00 | 0.00 | 0.00 | 44 | |
| 20260901173521 | 93 | 335 | 1.0 | 2.0 | 0.00 | 0.00 | 0.00 | 45 | |
| 20260901173017 | 93 | 330 | 1.0 | 2.0 | 0.00 | 0.00 | 0.00 | 44 | |
| 20260901172512 | 93 | 152 | 2.0 | 3.0 | 0.00 | 0.00 | 0.00 | 43 | |
| 20260901172010 | 93 | 289 | 1.0 | 2.0 | 0.00 | 0.00 | 0.00 | 44 | |
| 20260901171509 | 93 | 321 | 0.0 | 2.0 | 0.00 | 0.00 | 0.00 | 45 | |
| 20260901171008 | 93 | 329 | 1.0 | 2.0 | 0.00 | 0.00 | 0.00 | 44 | |
| 20260901170503 | 92 | 321 | 1.0 | 2.0 | 0.00 | 0.00 | 0.00 | 44 | |
| 20260901170002 | 93 | 310 | 1.0 | 3.0 | 0.00 | 0.00 | 0.00 | 47 | |
| 20260901165457 | 92 | 330 | 1.0 | 2.0 | 0.00 | 0.00 | 0.00 | 45 | |
| 20260901164953 | 91 | 330 | 0.0 | 1.0 | 0.00 | 0.00 | 0.00 | 46 | |
| 20260901164448 | 91 | 13 | 2.0 | 5.0 | 0.00 | 0.00 | 0.00 | 45 | |
| 20260901163943 | 91 | 325 | 1.0 | 5.0 | 0.00 | 0.00 | 0.00 | 47 | |
| 20260901163438 | 90 | 326 | 1.0 | 2.0 | 0.00 | 0.00 | 0.00 | 48 | |
| 20260901162937 | 90 | 312 | 0.0 | 2.0 | 0.00 | 0.00 | 0.00 | 48 | |
| 20260901162431 | 89 | 320 | 1.0 | 2.0 | 0.00 | 0.00 | 0.00 | 49 | |
| 20260901161926 | 89 | 333 | 0.0 | 1.0 | 0.00 | 0.00 | 0.00 | 49 | |
| 20260901161425 | 89 | 348 | 1.0 | 3.0 | 0.00 | 0.00 | 0.00 | 48 | |
| 20260901160920 | 89 | 328 | 0.0 | 2.0 | 0.00 | 0.00 | 0.00 | 50 | |
| 20260901160416 | 89 | 321 | 0.0 | 2.0 | 0.00 | 0.00 | 0.00 | 50 | |
| 20260901155915 | 88 | 354 | 1.0 | 2.0 | 0.00 | 0.00 | 0.00 | 52 | |
| 20260901155410 | 88 | 321 | 1.0 | 2.0 | 0.00 | 0.00 | 0.00 | 52 | |
| 20260901154907 | 87 | 323 | 0.0 | 1.0 | 0.00 | 0.00 | 0.00 | 54 | |
| 20260901154406 | 88 | 322 | 0.0 | 2.0 | 0.00 | 0.00 | 0.00 | 52 | |
| 20260901153901 | 88 | 332 | 0.0 | 2.0 | 0.00 | 0.00 | 0.00 | 52 | |
| 20260901153400 | 86 | 14 | 1.0 | 2.0 | 0.00 | 0.00 | 0.00 | 54 | |
| 20260901152900 | 86 | 329 | 0.0 | 3.0 | 0.00 | 0.00 | 0.00 | 54 | |
| 20260901152355 | 86 | 325 | 2.0 | 2.0 | 0.00 | 0.00 | 0.00 | 56 | |
| 20260901151850 | 85 | 326 | 0.0 | 2.0 | 0.00 | 0.00 | 0.00 | 56 | |
| 20260901151350 | 85 | 329 | 1.0 | 2.0 | 0.00 | 0.00 | 0.00 | 56 | |
| 20260901150849 | 85 | 347 | 4.0 | 5.0 | 0.00 | 0.00 | 0.00 | 55 | |
| 20260901150347 | 85 | 329 | 1.0 | 2.0 | 0.00 | 0.00 | 0.00 | 56 | |
| 20260901145845 | 84 | 326 | 2.0 | 3.0 | 0.00 | 0.00 | 0.00 | 56 | |
| 20260901145344 | 84 | 356 | 3.0 | 5.0 | 0.00 | 0.00 | 0.00 | 58 | |
| 20260901144840 | 83 | 326 | 1.0 | 1.0 | 0.00 | 0.00 | 0.00 | 60 | |
| 20260901144335 | 83 | 340 | 1.0 | 3.0 | 0.00 | 0.00 | 0.00 | 60 | |
| 20260901143831 | 82 | 328 | 1.0 | 2.0 | 0.00 | 0.00 | 0.00 | 61 | |
| 20260901143327 | 82 | 332 | 1.0 | 1.0 | 0.00 | 0.00 | 0.00 | 63 | |
| 20260901142823 | 81 | 338 | 2.0 | 2.0 | 0.00 | 0.00 | 0.00 | 62 | |
| 20260901142322 | 81 | 341 | 1.0 | 3.0 | 0.00 | 0.00 | 0.00 | 63 | |
| 20260901141817 | 81 | 329 | 1.0 | 2.0 | 0.00 | 0.00 | 0.00 | 63 | |
| 20260901141312 | 81 | 335 | 1.0 | 2.0 | 0.00 | 0.00 | 0.00 | 63 | |
| 20260901140811 | 81 | 335 | 2.0 | 3.0 | 0.00 | 0.00 | 0.00 | 62 | |
| 20260901140309 | 80 | 347 | 2.0 | 2.0 | 0.00 | 0.00 | 0.00 | 63 | |
| 20260901135804 | 80 | 331 | 1.0 | 2.0 | 0.00 | 0.00 | 0.00 | 63 | |
| 20260901135259 | 80 | 323 | 0.0 | 1.0 | 0.00 | 0.00 | 0.00 | 64 | |
| 20260901134756 | 79 | 324 | 0.0 | 2.0 | 0.00 | 0.00 | 0.00 | 64 | |
| 20260901134255 | 79 | 324 | 0.0 | 3.0 | 0.00 | 0.00 | 0.00 | 65 | |
| 20260901133755 | 78 | 323 | 0.0 | 1.0 | 0.00 | 0.00 | 0.00 | 65 | |
| 20260901133254 | 78 | 326 | 0.0 | 2.0 | 0.00 | 0.00 | 0.00 | 65 | |
| 20260901132753 | 78 | 334 | 1.0 | 2.0 | 0.00 | 0.00 | 0.00 | 65 | |
| 20260901132248 | 77 | 325 | 0.0 | 1.0 | 0.00 | 0.00 | 0.00 | 66 | |
| 20260901131743 | 77 | 327 | 1.0 | 2.0 | 0.00 | 0.00 | 0.00 | 66 | |
| 20260901131242 | 77 | 327 | 1.0 | 2.0 | 0.00 | 0.00 | 0.00 | 66 | |
| 20260901130738 | 77 | 325 | 1.0 | 1.0 | 0.00 | 0.00 | 0.00 | 67 | |
| 20260901130237 | 76 | 326 | 1.0 | 2.0 | 0.00 | 0.00 | 0.00 | 67 | |
| 20260901125735 | 77 | 324 | 1.0 | 1.0 | 0.00 | 0.00 | 0.00 | 67 | |
| 20260901125230 | 76 | 335 | 1.0 | 2.0 | 0.00 | 0.00 | 0.00 | 66 | |
| 20260901124730 | 75 | 327 | 0.0 | 1.0 | 0.00 | 0.00 | 0.00 | 68 | |
| 20260901124225 | 75 | 324 | 0.0 | 1.0 | 0.00 | 0.00 | 0.00 | 69 | |
| 20260901123724 | 74 | 325 | 0.0 | 1.0 | 0.00 | 0.00 | 0.00 | 69 | |
| 20260901123219 | 74 | 325 | 1.0 | 1.0 | 0.00 | 0.00 | 0.00 | 69 | |
| 20260901122718 | 74 | 326 | 0.0 | 1.0 | 0.00 | 0.00 | 0.00 | 69 | |
| 20260901122213 | 73 | 330 | 1.0 | 2.0 | 0.00 | 0.00 | 0.00 | 69 | |
| 20260901121707 | 73 | 327 | 1.0 | 1.0 | 0.00 | 0.00 | 0.00 | 70 | |
| 20260901121203 | 73 | 329 | 1.0 | 1.0 | 0.00 | 0.00 | 0.00 | 70 | |
| 20260901120702 | 73 | 335 | 0.0 | 1.0 | 0.00 | 0.00 | 0.00 | 70 | |
| 20260901120157 | 73 | 329 | 1.0 | 2.0 | 0.00 | 0.00 | 0.00 | 70 | |
| 20260901115652 | 73 | 326 | 0.0 | 1.0 | 0.00 | 0.00 | 0.00 | 70 | |
| 20260901115148 | 73 | 330 | 1.0 | 1.0 | 0.00 | 0.00 | 0.00 | 69 | |
| 20260901114645 | 74 | 328 | 1.0 | 1.0 | 0.00 | 0.00 | 0.00 | 69 | |
| 20260901114144 | 74 | 326 | 0.0 | 1.0 | 0.00 | 0.00 | 0.00 | 69 | |
| 20260901113643 | 74 | 325 | 0.0 | 0.0 | 0.00 | 0.00 | 0.00 | 69 | |
| 20260901113139 | 74 | 326 | 0.0 | 0.0 | 0.00 | 0.00 | 0.00 | 69 | |
| 20260901112633 | 74 | 325 | 1.0 | 1.0 | 0.00 | 0.00 | 0.00 | 69 | |
| 20260901112127 | 74 | 326 | 0.0 | 1.0 | 0.00 | 0.00 | 0.00 | 68 | |
| 20260901111627 | 75 | 328 | 1.0 | 1.0 | 0.00 | 0.00 | 0.00 | 68 | |
| 20260901111126 | 75 | 330 | 1.0 | 1.0 | 0.00 | 0.00 | 0.00 | 68 | |
| 20260901110621 | 75 | 330 | 1.0 | 1.0 | 0.00 | 0.00 | 0.00 | 68 | |
| 20260901110116 | 75 | 331 | 1.0 | 1.0 | 0.00 | 0.00 | 0.00 | 68 | |
| 20260901105613 | 75 | 326 | 1.0 | 1.0 | 0.00 | 0.00 | 0.00 | 67 | |
| 20260901105112 | 75 | 327 | 0.0 | 1.0 | 0.00 | 0.00 | 0.00 | 67 | |
| 20260901104608 | 75 | 325 | 0.0 | 1.0 | 0.00 | 0.00 | 0.00 | 67 | |
| 20260901104103 | 75 | 325 | 0.0 | 0.0 | 0.00 | 0.00 | 0.00 | 67 | |
| 20260901103557 | 75 | 326 | 0.0 | 1.0 | 0.00 | 0.00 | 0.00 | 66 | |
| 20260901103053 | 75 | 330 | 1.0 | 1.0 | 0.00 | 0.00 | 0.00 | 66 | |
| 20260901102553 | 75 | 326 | 0.0 | 1.0 | 0.00 | 0.00 | 0.00 | 66 | |
| 20260901102047 | 75 | 327 | 1.0 | 1.0 | 0.00 | 0.00 | 0.00 | 66 | |
| 20260901101543 | 75 | 327 | 0.0 | 1.0 | 0.00 | 0.00 | 0.00 | 66 | |
| 20260901101043 | 76 | 333 | 1.0 | 2.0 | 0.00 | 0.00 | 0.00 | 66 | |
| 20260901100542 | 76 | 328 | 1.0 | 2.0 | 0.00 | 0.00 | 0.00 | 65 | |
| 20260901100042 | 76 | 322 | 1.0 | 1.0 | 0.00 | 0.00 | 0.00 | 66 | |
| 20260901095541 | 76 | 329 | 1.0 | 2.0 | 0.00 | 0.00 | 0.00 | 66 | |
| 20260901095038 | 76 | 331 | 1.0 | 1.0 | 0.00 | 0.00 | 0.00 | 65 | |
| 20260901094534 | 76 | 328 | 1.0 | 2.0 | 0.00 | 0.00 | 0.00 | 65 | |
| 20260901094033 | 76 | 328 | 0.0 | 1.0 | 0.00 | 0.00 | 0.00 | 65 | |
| 20260901093528 | 76 | 340 | 1.0 | 2.0 | 0.00 | 0.00 | 0.00 | 65 | |
| 20260901093023 | 76 | 329 | 2.0 | 2.0 | 0.00 | 0.00 | 0.00 | 64 | |
| 20260901092519 | 77 | 327 | 0.0 | 1.0 | 0.00 | 0.00 | 0.00 | 64 | |
| 20260901092015 | 77 | 330 | 1.0 | 2.0 | 0.00 | 0.00 | 0.00 | 63 | |
| 20260901091510 | 77 | 330 | 1.0 | 1.0 | 0.00 | 0.00 | 0.00 | 63 | |
| 20260901091010 | 77 | 336 | 0.0 | 1.0 | 0.00 | 0.00 | 0.00 | 63 | |
| 20260901090509 | 77 | 339 | 2.0 | 2.0 | 0.00 | 0.00 | 0.00 | 63 | |
| 20260901090005 | 77 | 330 | 0.0 | 2.0 | 0.00 | 0.00 | 0.00 | 63 | |
| 20260901085501 | 77 | 344 | 3.0 | 3.0 | 0.00 | 0.00 | 0.00 | 63 | |
| 20260901084957 | 77 | 339 | 2.0 | 3.0 | 0.00 | 0.00 | 0.00 | 63 | |
| 20260901084452 | 77 | 343 | 2.0 | 3.0 | 0.00 | 0.00 | 0.00 | 63 | |
| 20260901083949 | 77 | 330 | 1.0 | 2.0 | 0.00 | 0.00 | 0.00 | 63 | |
| 20260901083448 | 77 | 326 | 1.0 | 1.0 | 0.00 | 0.00 | 0.00 | 63 | |
| 20260901082947 | 77 | 331 | 1.0 | 2.0 | 0.00 | 0.00 | 0.00 | 64 | |
| 20260901082442 | 77 | 328 | 0.0 | 1.0 | 0.00 | 0.00 | 0.00 | 63 | |
| 20260901081937 | 77 | 324 | 0.0 | 1.0 | 0.00 | 0.00 | 0.00 | 62 | |
| 20260901081432 | 78 | 333 | 1.0 | 1.0 | 0.00 | 0.00 | 0.00 | 62 | |
| 20260901080926 | 78 | 326 | 0.0 | 1.0 | 0.00 | 0.00 | 0.00 | 62 | |
| 20260901080421 | 78 | 327 | 0.0 | 1.0 | 0.00 | 0.00 | 0.00 | 61 | |
| 20260901075915 | 78 | 326 | 0.0 | 1.0 | 0.00 | 0.00 | 0.00 | 61 | |
| 20260901075410 | 78 | 332 | 1.0 | 1.0 | 0.00 | 0.00 | 0.00 | 61 | |
| 20260901074910 | 78 | 325 | 0.0 | 1.0 | 0.00 | 0.00 | 0.00 | 62 | |
| 20260901074405 | 78 | 327 | 1.0 | 2.0 | 0.00 | 0.00 | 0.00 | 61 | |
| 20260901073900 | 78 | 324 | 0.0 | 1.0 | 0.00 | 0.00 | 0.00 | 61 | |
| 20260901073356 | 79 | 325 | 0.0 | 1.0 | 0.00 | 0.00 | 0.00 | 61 | |
| 20260901072852 | 79 | 326 | 1.0 | 1.0 | 0.00 | 0.00 | 0.00 | 60 | |
| 20260901072351 | 79 | 325 | 0.0 | 1.0 | 0.00 | 0.00 | 0.00 | 60 | |
| 20260901071847 | 79 | 334 | 1.0 | 2.0 | 0.00 | 0.00 | 0.00 | 60 | |
| 20260901071345 | 79 | 327 | 0.0 | 1.0 | 0.00 | 0.00 | 0.00 | 59 | |
| 20260901070844 | 79 | 328 | 1.0 | 1.0 | 0.00 | 0.00 | 0.00 | 59 | |
| 20260901070340 | 79 | 326 | 0.0 | 1.0 | 0.00 | 0.00 | 0.00 | 59 | |
| 20260901065839 | 79 | 325 | 0.0 | 0.0 | 0.00 | 0.00 | 0.00 | 61 | |
| 20260901065334 | 79 | 325 | 0.0 | 2.0 | 0.00 | 0.00 | 0.00 | 59 | |
| 20260901064830 | 78 | 325 | 0.0 | 1.0 | 0.00 | 0.00 | 0.00 | 60 | |
| 20260901064326 | 78 | 325 | 0.0 | 1.0 | 0.00 | 0.00 | 0.00 | 61 | |
| 20260901063823 | 78 | 325 | 0.0 | 0.0 | 0.00 | 0.00 | 0.00 | 61 | |
| 20260901063319 | 79 | 325 | 0.0 | 0.0 | 0.00 | 0.00 | 0.00 | 60 | |
| 20260901062815 | 79 | 325 | 0.0 | 0.0 | 0.00 | 0.00 | 0.00 | 60 | |
| 20260901062311 | 79 | 325 | 0.0 | 0.0 | 0.00 | 0.00 | 0.00 | 60 | |
| 20260901061807 | 79 | 331 | 0.0 | 0.0 | 0.00 | 0.00 | 0.00 | 60 | |
| 20260901061307 | 79 | 324 | 0.0 | 0.0 | 0.00 | 0.00 | 0.00 | 60 | |
| 20260901060802 | 79 | 324 | 0.0 | 0.0 | 0.00 | 0.00 | 0.00 | 60 | |
| 20260901060258 | 79 | 324 | 0.0 | 0.0 | 0.00 | 0.00 | 0.00 | 59 | |
| 20260901055752 | 79 | 324 | 0.0 | 0.0 | 0.00 | 0.00 | 0.00 | 59 | |
| 20260901055249 | 79 | 324 | 0.0 | 0.0 | 0.00 | 0.00 | 0.00 | 59 | |
| 20260901054746 | 80 | 324 | 0.0 | 0.0 | 0.00 | 0.00 | 0.00 | 59 | |
| 20260901054242 | 80 | 325 | 0.0 | 0.0 | 0.00 | 0.00 | 0.00 | 58 | |
| 20260901053737 | 80 | 324 | 0.0 | 0.0 | 0.00 | 0.00 | 0.00 | 59 | |
| 20260901053232 | 80 | 324 | 0.0 | 0.0 | 0.00 | 0.00 | 0.00 | 58 | |
| 20260901052728 | 80 | 323 | 0.0 | 1.0 | 0.00 | 0.00 | 0.00 | 57 | |
| 20260901052224 | 80 | 328 | 0.0 | 1.0 | 0.00 | 0.00 | 0.00 | 57 | |
| 20260901051723 | 81 | 328 | 0.0 | 0.0 | 0.00 | 0.00 | 0.00 | 56 | |
| 20260901051223 | 81 | 327 | 0.0 | 0.0 | 0.00 | 0.00 | 0.00 | 55 | |
| 20260901050719 | 82 | 326 | 0.0 | 1.0 | 0.00 | 0.00 | 0.00 | 55 | |
| 20260901050219 | 82 | 324 | 0.0 | 1.0 | 0.00 | 0.00 | 0.00 | 54 | |
| 20260901045714 | 82 | 324 | 1.0 | 1.0 | 0.00 | 0.00 | 0.00 | 54 | |
| 20260901045209 | 82 | 324 | 0.0 | 1.0 | 0.00 | 0.00 | 0.00 | 54 | |
| 20260901044704 | 82 | 324 | 1.0 | 2.0 | 0.00 | 0.00 | 0.00 | 54 | |
| 20260901044201 | 82 | 325 | 1.0 | 1.0 | 0.00 | 0.00 | 0.00 | 54 | |
| 20260901043656 | 82 | 332 | 0.0 | 1.0 | 0.00 | 0.00 | 0.00 | 53 | |
| 20260901043151 | 83 | 325 | 1.0 | 1.0 | 0.00 | 0.00 | 0.00 | 53 | |
| 20260901042650 | 83 | 324 | 0.0 | 0.0 | 0.00 | 0.00 | 0.00 | 53 | |
| 20260901042146 | 83 | 324 | 0.0 | 1.0 | 0.00 | 0.00 | 0.00 | 52 | |
| 20260901041642 | 83 | 325 | 0.0 | 1.0 | 0.00 | 0.00 | 0.00 | 51 | |
| 20260901041136 | 84 | 326 | 0.0 | 1.0 | 0.00 | 0.00 | 0.00 | 52 | |
| 20260901040636 | 84 | 343 | 2.0 | 2.0 | 0.00 | 0.00 | 0.00 | 51 | |
| 20260901040135 | 84 | 325 | 2.0 | 2.0 | 0.00 | 0.00 | 0.00 | 51 | |
| 20260901035634 | 84 | 346 | 2.0 | 3.0 | 0.00 | 0.00 | 0.00 | 51 | |
| 20260901035133 | 84 | 336 | 1.0 | 2.0 | 0.00 | 0.00 | 0.00 | 51 | |
| 20260901034633 | 84 | 326 | 1.0 | 2.0 | 0.00 | 0.00 | 0.00 | 51 | |
| 20260901034127 | 84 | 326 | 2.0 | 2.0 | 0.00 | 0.00 | 0.00 | 51 | |
| 20260901033626 | 84 | 345 | 1.0 | 3.0 | 0.00 | 0.00 | 0.00 | 51 | |
| 20260901033121 | 84 | 324 | 0.0 | 1.0 | 0.00 | 0.00 | 0.00 | 51 | |
| 20260901032619 | 84 | 327 | 0.0 | 2.0 | 0.00 | 0.00 | 0.00 | 51 | |
| 20260901032114 | 84 | 327 | 0.0 | 1.0 | 0.00 | 0.00 | 0.00 | 52 | |
| 20260901031609 | 84 | 326 | 1.0 | 2.0 | 0.00 | 0.00 | 0.00 | 51 | |
| 20260901031105 | 84 | 328 | 2.0 | 2.0 | 0.00 | 0.00 | 0.00 | 52 | |
| 20260901030600 | 84 | 328 | 1.0 | 2.0 | 0.00 | 0.00 | 0.00 | 52 | |
| 20260901030055 | 84 | 327 | 1.0 | 1.0 | 0.00 | 0.00 | 0.00 | 53 | |
| 20260901025554 | 85 | 328 | 1.0 | 1.0 | 0.00 | 0.00 | 0.00 | 53 | |
| 20260901025049 | 85 | 328 | 0.0 | 1.0 | 0.00 | 0.00 | 0.00 | 53 | |
| 20260901024544 | 85 | 324 | 0.0 | 1.0 | 0.00 | 0.00 | 0.00 | 53 | |
| 20260901024042 | 85 | 328 | 0.0 | 0.0 | 0.00 | 0.00 | 0.00 | 53 | |
| 20260901023541 | 85 | 328 | 0.0 | 2.0 | 0.00 | 0.00 | 0.00 | 52 | |
| 20260901023037 | 85 | 326 | 1.0 | 2.0 | 0.00 | 0.00 | 0.00 | 53 | |
| 20260901022532 | 85 | 320 | 0.0 | 0.0 | 0.00 | 0.00 | 0.00 | 55 | |
| 20260901022027 | 85 | 327 | 0.0 | 1.0 | 0.00 | 0.00 | 0.00 | 53 | |
| 20260901021523 | 85 | 328 | 0.0 | 0.0 | 0.00 | 0.00 | 0.00 | 55 | |
| 20260901021018 | 85 | 328 | 0.0 | 0.0 | 0.00 | 0.00 | 0.00 | 55 | |
| 20260901020513 | 84 | 328 | 0.0 | 1.0 | 0.00 | 0.00 | 0.00 | 55 | |
| 20260901020008 | 84 | 328 | 0.0 | 0.0 | 0.00 | 0.00 | 0.00 | 57 | |
| 20260901015504 | 85 | 328 | 0.0 | 0.0 | 0.00 | 0.00 | 0.00 | 57 | |
| 20260901015003 | 85 | 328 | 0.0 | 0.0 | 0.00 | 0.00 | 0.00 | 58 | |
| 20260901014459 | 85 | 328 | 0.0 | 0.0 | 0.00 | 0.00 | 0.00 | 56 | |
| 20260901013954 | 85 | 328 | 0.0 | 0.0 | 0.00 | 0.00 | 0.00 | 56 | |
| 20260901013450 | 86 | 328 | 0.0 | 0.0 | 0.00 | 0.00 | 0.00 | 56 | |
| 20260901012946 | 86 | 328 | 0.0 | 0.0 | 0.00 | 0.00 | 0.00 | 55 | |
| 20260901012445 | 86 | 328 | 0.0 | 0.0 | 0.00 | 0.00 | 0.00 | 55 | |
| 20260901011941 | 87 | 328 | 0.0 | 0.0 | 0.00 | 0.00 | 0.00 | 55 | |
| 20260901011437 | 87 | 327 | 0.0 | 0.0 | 0.00 | 0.00 | 0.00 | 55 | |
| 20260901010935 | 87 | 327 | 0.0 | 0.0 | 0.00 | 0.00 | 0.00 | 54 | |
| 20260901010430 | 88 | 327 | 0.0 | 0.0 | 0.00 | 0.00 | 0.00 | 53 | |
| 20260901005929 | 88 | 327 | 0.0 | 0.0 | 0.00 | 0.00 | 0.00 | 53 | |
| 20260901005424 | 89 | 327 | 0.0 | 0.0 | 0.00 | 0.00 | 0.00 | 51 | |
| 20260901004919 | 90 | 327 | 0.0 | 0.0 | 0.00 | 0.00 | 0.00 | 51 | |
| 20260901004418 | 90 | 327 | 0.0 | 0.0 | 0.00 | 0.00 | 0.00 | 49 | |
| 20260901003914 | 91 | 327 | 0.0 | 0.0 | 0.00 | 0.00 | 0.00 | 49 | |
| 20260901003409 | 92 | 327 | 0.0 | 0.0 | 0.00 | 0.00 | 0.00 | 47 | |
| 20260901002907 | 93 | 327 | 0.0 | 0.0 | 0.00 | 0.00 | 0.00 | 47 | |
| 20260901002407 | 93 | 327 | 0.0 | 1.0 | 0.00 | 0.00 | 0.00 | 45 | |
| 20260901001901 | 94 | 325 | 0.0 | 1.0 | 0.00 | 0.00 | 0.00 | 44 | |
| 20260901001356 | 95 | 326 | 0.0 | 0.0 | 0.00 | 0.00 | 0.00 | 43 | |
| 20260901000852 | 95 | 321 | 0.0 | 1.0 | 0.00 | 0.00 | 0.00 | 43 | |
| 20260901000347 | 95 | 326 | 0.0 | 1.0 | 0.00 | 0.00 | 0.00 | 42 | |
| 20260831235845 | 95 | 318 | 0.0 | 0.0 | 0.00 | 0.00 | 0.00 | 42 | |
| 20260831235342 | 95 | 326 | 0.0 | 0.0 | 0.00 | 0.00 | 0.00 | 41 | |
| 20260831234836 | 95 | 326 | 1.0 | 1.0 | 0.00 | 0.00 | 0.00 | 41 | |
| 20260831234331 | 95 | 329 | 0.0 | 2.0 | 0.00 | 0.00 | 0.00 | 40 | |
| 20260831233826 | 95 | 337 | 0.0 | 2.0 | 0.00 | 0.00 | 0.00 | 40 | |
| 20260831233321 | 96 | 324 | 0.0 | 2.0 | 0.00 | 0.00 | 0.00 | 40 | |
| 20260831232817 | 95 | 326 | 0.0 | 2.0 | 0.00 | 0.00 | 0.00 | 40 | |
| 20260831232313 | 95 | 322 | 1.0 | 2.0 | 0.00 | 0.00 | 0.00 | 44 | |
| 20260831231809 | 96 | 320 | 0.0 | 0.0 | 0.00 | 0.00 | 0.00 | 44 | |
| 20260831231305 | 96 | 316 | 0.0 | 0.0 | 0.00 | 0.00 | 0.00 | 43 | |
| 20260831230800 | 96 | 320 | 0.0 | 1.0 | 0.00 | 0.00 | 0.00 | 43 | |
| 20260831230254 | 96 | 320 | 0.0 | 0.0 | 0.00 | 0.00 | 0.00 | 41 | |
| 20260831225754 | 95 | 326 | 0.0 | 0.0 | 0.00 | 0.00 | 0.00 | 42 | |
| 20260831225249 | 96 | 320 | 0.0 | 0.0 | 0.00 | 0.00 | 0.00 | 44 | |
| 20260831224744 | 96 | 320 | 0.0 | 1.0 | 0.00 | 0.00 | 0.00 | 41 | |
| 20260831224240 | 96 | 303 | 0.0 | 1.0 | 0.00 | 0.00 | 0.00 | 40 | |
| 20260831223734 | 96 | 320 | 0.0 | 5.0 | 0.00 | 0.00 | 0.00 | 40 | |
| 20260831223231 | 96 | 319 | 0.0 | 0.0 | 0.00 | 0.00 | 0.00 | 39 |